Location: Wingville
(42.9917°N, 90.4915°W)
Time: 19:22:22
(UTC+00:00)

YUBILEINY - Pass Details

Date: 06 July 2022
Orbit: 1478 x 1509 km, 82.5° (Epoch: 08 August)

Event Time Altitude Azimuth Distance (km) Brightness Sun altitude
Rises 09:28:36 0° 352° (N) 4,647 ? -9.6°
Reaches altitude 10° 09:31:33 10° 356° (N) 3,659 ? -9.2°
Maximum altitude 09:40:19 68° 79° (ENE) 1,594 ? -8.0°
Drops below altitude 10° 09:48:58 10° 161° (SSE) 3,617 ? -6.8°
Sets 09:51:52 0° 164° (SSE) 4,590 ? -6.4°
